Estació meteorològica de Bellmunt (Osona, Osona)

Consulta les dades en temps real de l'estació meteorològica de Bellmunt





Hora UTC 12:00
Temperatura 31.6 ºC
Humitat 41.0 %
Pressió 1017.2 hPa
Pluja 0.0 mm
Velocitat vent 9.7 km/h
Direcció vent WSW

Dades diàries 2026-09-03



Hora UTC (hivern +1h; estiu +2h)
Temperatura (ºC) Humitat (%) Pressió (hPa) Velocitat vent (km/h) Precipitació (mm)
Hora UTC Aire Humitat Pressió Vel. Dir. Vel. Max Dir. Intent. màx 5 min.
00:05 18.9 64.0 1017.9 0.0 NE 0.0 0.0
00:10 18.8 65.0 1017.8 0.0 NE 0.0 0.0
00:15 18.8 65.0 1017.8 0.0 NE 0.0 0.0
00:20 18.6 65.0 1017.7 0.0 NE 0.0 0.0
00:25 18.5 65.0 1017.7 0.0 NE 0.0 0.0
00:30 18.5 66.0 1017.9 0.0 NNE 0.0 0.0
00:35 18.7 66.0 1017.8 3.2 N 4.8 0.0
00:40 18.8 65.0 1017.8 1.6 N 4.8 0.0
00:45 18.9 65.0 1017.8 0.0 N 4.8 0.0
00:50 18.7 65.0 1017.8 0.0 N 1.6 0.0
00:55 18.4 65.0 1017.8 0.0 N 0.0 0.0
01:00 18.2 66.0 1017.7 0.0 N 0.0 0.0
01:05 18.1 66.0 1017.7 0.0 N 0.0 0.0
01:10 18.1 66.0 1017.7 0.0 N 0.0 0.0
01:15 18.0 66.0 1017.7 0.0 N 0.0 0.0
01:20 17.9 67.0 1017.6 0.0 N 0.0 0.0
01:25 17.9 67.0 1017.6 0.0 N 0.0 0.0
01:30 17.9 67.0 1017.6 0.0 N 0.0 0.0
01:35 17.8 67.0 1017.7 0.0 N 0.0 0.0
01:40 17.6 67.0 1017.7 0.0 N 0.0 0.0
01:45 17.4 67.0 1017.6 0.0 N 0.0 0.0
01:50 17.5 68.0 1017.5 0.0 N 0.0 0.0
01:55 17.3 68.0 1017.5 0.0 N 0.0 0.0
02:00 17.3 68.0 1017.4 0.0 N 0.0 0.0
02:05 17.4 68.0 1017.5 0.0 N 0.0 0.0
02:10 17.6 68.0 1017.4 0.0 NNE 0.0 0.0
02:15 17.8 68.0 1017.5 1.6 NNE 3.2 0.0
02:20 17.8 67.0 1017.4 0.0 NNE 3.2 0.0
02:25 17.8 67.0 1017.4 0.0 NNE 0.0 0.0
02:30 17.6 67.0 1017.4 0.0 NNE 0.0 0.0
02:35 17.4 67.0 1017.4 0.0 NNE 0.0 0.0
02:40 17.6 68.0 1017.4 0.0 NNE 0.0 0.0
02:45 17.7 67.0 1017.4 0.0 NE 0.0 0.0
02:50 17.6 67.0 1017.4 0.0 NE 0.0 0.0
02:55 17.6 68.0 1017.3 0.0 NE 0.0 0.0
03:00 17.6 68.0 1017.4 0.0 NNE 0.0 0.0
03:05 17.6 68.0 1017.3 0.0 NE 0.0 0.0
03:10 17.6 68.0 1017.3 0.0 NE 0.0 0.0
03:15 17.4 68.0 1017.3 0.0 NE 0.0 0.0
03:20 17.2 68.0 1017.2 0.0 NE 0.0 0.0
03:25 17.1 68.0 1017.3 0.0 NE 0.0 0.0
03:30 17.0 69.0 1017.3 0.0 NE 0.0 0.0
03:35 17.1 69.0 1017.2 0.0 NNE 0.0 0.0
03:40 17.2 69.0 1017.3 0.0 NNE 0.0 0.0
03:45 17.3 68.0 1017.2 0.0 NNE 0.0 0.0
03:50 17.2 68.0 1017.1 0.0 NE 0.0 0.0
03:55 17.2 68.0 1017.1 0.0 NE 0.0 0.0
04:00 17.0 68.0 1017.1 0.0 NNE 0.0 0.0
04:05 16.9 69.0 1017.1 0.0 NNE 0.0 0.0
04:10 16.8 69.0 1017.0 0.0 NNE 0.0 0.0
04:15 16.7 69.0 1016.9 0.0 NNE 0.0 0.0
04:20 16.5 69.0 1017.0 0.0 NNE 0.0 0.0
04:25 16.6 70.0 1016.9 0.0 N 0.0 0.0
04:30 16.5 70.0 1016.9 0.0 N 0.0 0.0
04:35 16.4 70.0 1016.9 0.0 N 0.0 0.0
04:40 16.5 71.0 1016.9 0.0 N 0.0 0.0
04:45 16.6 71.0 1017.0 0.0 NNE 0.0 0.0
04:50 16.7 71.0 1017.0 0.0 NNE 0.0 0.0
04:55 16.6 70.0 1017.1 0.0 ESE 1.6 0.0
05:00 16.4 70.0 1017.0 0.0 ESE 1.6 0.0
05:05 16.3 71.0 1017.1 0.0 ESE 0.0 0.0
05:10 16.5 71.0 1017.1 1.6 ESE 3.2 0.0
05:15 16.6 71.0 1017.0 3.2 ESE 3.2 0.0
05:20 16.5 71.0 1017.1 3.2 E 4.8 0.0
05:25 16.7 71.0 1017.1 1.6 ENE 4.8 0.0
05:30 16.8 71.0 1017.2 0.0 ENE 6.4 0.0
05:35 16.8 71.0 1017.3 0.0 ENE 6.4 0.0
05:40 16.8 71.0 1017.3 0.0 ENE 0.0 0.0
05:45 16.7 71.0 1017.3 0.0 ENE 0.0 0.0
05:50 16.7 71.0 1017.4 0.0 ENE 0.0 0.0
05:55 16.8 71.0 1017.4 0.0 SE 0.0 0.0
06:00 16.7 71.0 1017.4 1.6 SW 4.8 0.0
06:05 16.8 70.0 1017.4 0.0 SW 4.8 0.0
06:10 17.0 70.0 1017.5 0.0 SW 1.6 0.0
06:15 17.3 70.0 1017.6 0.0 SW 0.0 0.0
06:20 17.7 70.0 1017.6 0.0 SW 0.0 0.0
06:25 18.1 70.0 1017.7 0.0 SW 0.0 0.0
06:30 18.2 68.0 1017.7 0.0 WSW 0.0 0.0
06:35 18.4 68.0 1017.7 0.0 WSW 0.0 0.0
06:40 18.8 67.0 1017.8 0.0 WSW 0.0 0.0
06:45 19.0 66.0 1017.8 0.0 SW 0.0 0.0
06:50 19.5 65.0 1017.8 0.0 SSW 0.0 0.0
06:55 19.7 64.0 1017.8 0.0 SSW 0.0 0.0
07:00 19.9 63.0 1017.9 0.0 SW 0.0 0.0
07:05 20.0 63.0 1017.8 0.0 WSW 3.2 0.0
07:10 19.9 63.0 1017.9 0.0 SW 3.2 0.0
07:15 20.2 63.0 1017.9 0.0 WSW 3.2 0.0
07:20 20.4 63.0 1017.9 0.0 SW 0.0 0.0
07:25 20.7 62.0 1017.9 0.0 SSW 0.0 0.0
07:30 20.8 62.0 1017.9 0.0 SSW 0.0 0.0
07:35 21.1 61.0 1018.0 0.0 SW 1.6 0.0
07:40 21.3 61.0 1017.9 0.0 SW 3.2 0.0
07:45 21.8 60.0 1018.0 0.0 S 0.0 0.0
07:50 22.3 59.0 1018.0 0.0 SSW 0.0 0.0
07:55 22.4 59.0 1017.9 0.0 S 4.8 0.0
08:00 22.6 58.0 1017.9 0.0 S 4.8 0.0
08:05 22.8 58.0 1017.9 0.0 SSE 4.8 0.0
08:10 23.2 57.0 1017.9 0.0 ESE 0.0 0.0
08:15 23.3 57.0 1017.9 1.6 SSE 4.8 0.0
08:20 23.6 57.0 1017.9 0.0 WSW 4.8 0.0
08:25 23.9 57.0 1018.0 1.6 SSW 6.4 0.0
08:30 24.3 57.0 1018.0 0.0 WSW 6.4 0.0
08:35 24.3 56.0 1018.1 4.8 WSW 6.4 0.0
08:40 24.6 56.0 1018.0 1.6 WSW 6.4 0.0
08:45 24.8 56.0 1018.2 3.2 WSW 6.4 0.0
08:50 25.3 55.0 1018.1 4.8 WSW 6.4 0.0
08:55 25.7 54.0 1018.2 3.2 WSW 6.4 0.0
09:00 26.1 54.0 1018.1 1.6 WSW 4.8 0.0
09:05 26.3 55.0 1018.1 0.0 WSW 4.8 0.0
09:10 26.7 54.0 1018.2 3.2 WSW 4.8 0.0
09:15 27.1 52.0 1018.2 0.0 WSW 4.8 0.0
09:20 27.3 51.0 1018.2 0.0 WSW 3.2 0.0
09:25 27.7 50.0 1018.1 0.0 WSW 0.0 0.0
09:30 28.1 50.0 1018.1 6.4 WSW 6.4 0.0
09:35 27.9 49.0 1018.1 1.6 WSW 9.7 0.0
09:40 28.3 48.0 1018.1 3.2 WSW 9.7 0.0
09:45 28.6 46.0 1018.0 3.2 WSW 9.7 0.0
09:50 28.8 48.0 1018.1 3.2 WSW 9.7 0.0
09:55 29.1 47.0 1018.2 1.6 WSW 9.7 0.0
10:00 28.9 45.0 1018.1 3.2 WSW 14.5 0.0
10:05 28.8 47.0 1018.1 1.6 W 14.5 0.0
10:10 29.1 45.0 1018.1 0.0 WSW 8.0 0.0
10:15 29.3 44.0 1018.0 3.2 SE 9.7 0.0
10:20 29.6 44.0 1017.9 4.8 S 11.3 0.0
10:25 29.6 45.0 1017.9 9.7 S 12.9 0.0
10:30 29.6 45.0 1017.9 3.2 WSW 12.9 0.0
10:35 29.7 43.0 1017.8 3.2 WSW 11.3 0.0
10:40 29.9 43.0 1017.7 1.6 WSW 9.7 0.0
10:45 29.7 44.0 1017.7 4.8 WSW 9.7 0.0
10:50 29.9 43.0 1017.7 6.4 W 9.7 0.0
10:55 30.2 43.0 1017.6 9.7 ESE 11.3 0.0
11:00 30.4 43.0 1017.6 4.8 ESE 11.3 0.0
11:05 30.2 44.0 1017.6 4.8 N 11.3 0.0
11:10 30.3 43.0 1017.6 4.8 E 14.5 0.0
11:15 30.6 44.0 1017.6 11.3 NE 14.5 0.0
11:20 30.9 41.0 1017.5 6.4 S 14.5 0.0
11:25 30.9 42.0 1017.4 4.8 W 14.5 0.0
11:30 31.1 40.0 1017.4 4.8 SSW 14.5 0.0
11:35 31.3 40.0 1017.4 1.6 SSW 14.5 0.0
11:40 31.6 41.0 1017.4 3.2 W 9.7 0.0
11:45 31.6 41.0 1017.4 4.8 W 9.7 0.0
11:50 31.4 41.0 1017.3 6.4 NW 9.7 0.0
11:55 31.1 42.0 1017.3 3.2 WNW 9.7 0.0
12:00 31.6 41.0 1017.2 9.7 WSW 12.9 0.0
Màxima 31.6 71.0 1018.2 11.3 NE 14.5 0.0
Mínima 16.3 40.0 1016.9
Total 0.0